This demonstration page uses our WeatherBlox Daily Observations layout. Learn more.

Hourly Observations for October 1, 2015

Temp ( °F °C ) Dew Point ( °F °C ) Humidity (%) Winds ( mph kmh ) Pressure ( in mb ) Visibility ( mi km ) Precip ( " mm )
12:15 am 00:15 Cloudy 63 17 39 4 42 42 ESE 9 15 30.15 1021 10 16.09344 0 0
12:35 am 00:35 Cloudy 61 16 39 4 45 45 ESE 10 17 30.15 1021 10 16.09344 0 0
12:55 am 00:55 Cloudy 61 16 39 4 45 45 SE 12 19 30.15 1021 10 16.09344 0 0
1:15 am 01:15 Cloudy 61 16 37 3 42 42 SE 10 17 30.15 1021 10 16.09344 0 0
1:35 am 01:35 Cloudy 59 15 39 4 48 48 ESE 13 20 30.15 1021 10 16.09344 0 0
1:55 am 01:55 Cloudy 59 15 39 4 48 48 SE 10 17 30.12 1020 10 16.09344 0 0
2:15 am 02:15 Cloudy 59 15 39 4 48 48 SE 10 17 30.15 1021 10 16.09344 0 0
2:35 am 02:35 Cloudy 59 15 39 4 48 48 SE 10 17 30.15 1021 10 16.09344 0 0
2:55 am 02:55 Cloudy 59 15 39 4 48 48 SE 10 17 30.15 1021 10 16.09344 0 0
3:15 am 03:15 Cloudy 57 14 39 4 51 51 SE 10 17 30.18 1022 10 16.09344 0 0
3:35 am 03:35 Mostly Cloudy 57 14 39 4 51 51 SE 10 17 30.12 1020 10 16.09344 0 0
3:55 am 03:55 Clear 55 13 39 4 55 55 SE 10 17 30.15 1021 10 16.09344 0 0
4:15 am 04:15 Clear 55 13 39 4 55 55 SE 9 15 30.15 1021 10 16.09344 0 0
4:35 am 04:35 Clear 54 12 39 4 58 58 SE 9 15 30.15 1021 10 16.09344 0 0
4:55 am 04:55 Partly Cloudy 54 12 39 4 58 58 SE 7 11 30.15 1021 10 16.09344 0 0
5:15 am 05:15 Mostly Cloudy 54 12 41 5 63 63 SE 9 15 30.18 1022 10 16.09344 0 0
5:35 am 05:35 Partly Cloudy 52 11 41 5 67 67 ESE 7 11 30.18 1022 10 16.09344 0 0
5:55 am 05:55 Clear 50 10 41 5 71 71 ESE 7 11 30.21 1023 10 16.09344 0 0
6:15 am 06:15 Clear 50 10 41 5 71 71 ESE 6 9 30.21 1023 10 16.09344 0 0
6:35 am 06:35 Clear 48 9 41 5 76 76 ESE 7 11 30.21 1023 10 16.09344 0 0
6:55 am 06:55 Mostly Cloudy 50 10 41 5 71 71 ESE 7 11 30.21 1023 10 16.09344 0 0
7:15 am 07:15 Cloudy 54 12 41 5 63 63 ESE 9 15 30.18 1022 10 16.09344 0 0
7:55 am 07:55 Cloudy 54 12 41 5 63 63 SE 8 13 30.21 1023 10 16.09344 0 0
8:15 am 08:15 Cloudy 54 12 41 5 63 63 SE 8 13 30.21 1023 10 16.09344 0 0
8:35 am 08:35 Cloudy 55 13 41 5 59 59 SE 10 17 30.21 1023 10 16.09344 0 0
8:55 am 08:55 Cloudy 55 13 41 5 59 59 SE 9 15 30.21 1023 10 16.09344 0 0
9:15 am 09:15 Cloudy 55 13 41 5 59 59 SE 10 17 30.21 1023 10 16.09344 0 0
9:35 am 09:35 Cloudy 57 14 41 5 55 55 SE 12 19 30.21 1023 10 16.09344 0 0
9:55 am 09:55 Cloudy 57 14 41 5 55 55 SE 13 20 30.24 1024 10 16.09344 0 0
10:15 am 10:15 Cloudy 57 14 41 5 55 55 SE 10 17 30.24 1024 10 16.09344 0 0
10:35 am 10:35 Cloudy 59 15 41 5 51 51 SSE 14 22 30.21 1023 10 16.09344 0 0
10:55 am 10:55 Cloudy 61 16 41 5 48 48 SE 13 20 30.21 1023 10 16.09344 0 0
11:15 am 11:15 Cloudy 61 16 41 5 48 48 SE 14 22 30.21 1023 10 16.09344 0 0
11:35 am 11:35 Cloudy 63 17 41 5 45 45 SE 12 19 30.21 1023 10 16.09344 0 0
11:55 am 11:55 Cloudy 63 17 41 5 45 45 SE 13 20 30.21 1023 10 16.09344 0 0
12:15 pm 12:15 Cloudy 63 17 41 5 45 45 SSE 14 22 30.21 1023 10 16.09344 0 0
12:35 pm 12:35 Cloudy 64 18 41 5 43 43 SE 13 20 30.21 1023 10 16.09344 0 0
12:55 pm 12:55 Cloudy 63 17 39 4 42 42 SE 13 20 30.21 1023 10 16.09344 0 0
1:15 pm 13:15 Cloudy 64 18 39 4 40 40 SE 12 19 30.21 1023 10 16.09344 0 0
1:35 pm 13:35 Cloudy 64 18 39 4 40 40 ESE 13 20 30.18 1022 10 16.09344 0 0
1:55 pm 13:55 Cloudy 64 18 39 4 40 40 SE 10 17 30.18 1022 10 16.09344 0 0
2:15 pm 14:15 Cloudy 64 18 37 3 37 37 SE 10 17 30.21 1023 10 16.09344 0 0
2:35 pm 14:35 Cloudy 64 18 39 4 40 40 SE 9 15 30.21 1023 10 16.09344 0 0
2:55 pm 14:55 Cloudy 66 19 37 3 35 35 SE 9 15 30.15 1021 10 16.09344 0 0
3:15 pm 15:15 Mostly Cloudy 66 19 39 4 37 37 SE 9 15 30.15 1021 10 16.09344 0 0
3:35 pm 15:35 Partly Cloudy 68 20 39 4 35 35 E 14 22 30.15 1021 10 16.09344 0 0
3:55 pm 15:55 Mostly Cloudy 68 20 37 3 33 33 ESE 10 17 30.15 1021 10 16.09344 0 0
4:15 pm 16:15 Mostly Cloudy 66 19 39 4 37 37 E 9 15 30.15 1021 10 16.09344 0 0
4:35 pm 16:35 Partly Cloudy 68 20 41 5 38 38 ESE 13 20 30.12 1020 10 16.09344 0 0
4:55 pm 16:55 Sunny 68 20 39 4 35 35 SE 12 19 30.12 1020 10 16.09344 0 0
5:15 pm 17:15 Sunny 68 20 39 4 35 35 SE 15 24 30.12 1020 10 16.09344 0 0
5:35 pm 17:35 Sunny 66 19 37 3 35 35 SE 17 28 30.12 1020 10 16.09344 0 0
5:55 pm 17:55 Sunny 66 19 36 2 32 32 SE 14 22 30.12 1020 10 16.09344 0 0
6:15 pm 18:15 Sunny 64 18 36 2 34 34 SE 12 19 30.12 1020 10 16.09344 0 0
6:35 pm 18:35 Sunny 64 18 36 2 34 34 ESE 10 17 30.12 1020 10 16.09344 0 0
6:55 pm 18:55 Cloudy 68 20 41 5 38 38 SSE 6 9 30.06 1018 10 16.09344 0 0
7:15 pm 19:15 Sunny 63 17 37 3 39 39 ESE 8 13 30.18 1022 10 16.09344 0 0
7:35 pm 19:35 Clear 61 16 39 4 45 45 E 6 9 30.18 1022 10 16.09344 0 0
7:55 pm 19:55 Clear 61 16 39 4 45 45 ESE 7 11 30.18 1022 10 16.09344 0 0
8:15 pm 20:15 Partly Cloudy 61 16 39 4 45 45 ESE 5 7 30.18 1022 10 16.09344 0 0
8:35 pm 20:35 Clear 59 15 39 4 48 48 E 5 7 30.18 1022 10 16.09344 0 0
8:55 pm 20:55 Partly Cloudy 59 15 39 4 48 48 E 7 11 30.18 1022 10 16.09344 0 0
9:15 pm 21:15 Clear 59 15 41 5 51 51 ESE 3 6 30.21 1023 10 16.09344 0 0
9:35 pm 21:35 Partly Cloudy 59 15 41 5 51 51 ESE 8 13 30.21 1023 10 16.09344 0 0
9:55 pm 21:55 Partly Cloudy 59 15 41 5 51 51 E 10 17 30.21 1023 10 16.09344 0 0
10:15 pm 22:15 Partly Cloudy with Light Rain 59 15 41 5 51 51 E 12 19 30.21 1023 10 16.09344 0 0
10:35 pm 22:35 Clear 57 14 41 5 55 55 E 14 22 30.24 1024 10 16.09344 0 0
10:55 pm 22:55 Clear 57 14 41 5 55 55 ESE 13 20 30.24 1024 10 16.09344 0 0
11:15 pm 23:15 Clear 57 14 41 5 55 55 ESE 12 19 30.24 1024 10 16.09344 0 0
11:35 pm 23:35 Partly Cloudy 55 13 41 5 59 59 SE 9 15 30.27 1025 10 16.09344 0 0
11:55 pm 23:55 Clear 55 13 41 5 59 59 ESE 8 13 30.27 1025 10 16.09344 0 0

Powered by AerisWeather